sat.trackr.live / text

‹ back to catalog

STARLINK-2633

NORAD 48435 · 2021-040H

PAYLOAD ACTIVE UNKNOWN

§ Identity

Operator
Country
US
Launch date
2021-05-09
Launch site
AFETR
Launch vehicle
Mass (kg)
RCS (m²)

Purposes: comms

External: N2YO · Heavens-Above · Gunter

§ Orbital elements

Epoch: 2026-05-25T04:51:59.821344Z

Period
94.01 min
Inclination
53.1601°
Eccentricity
0.0001241
Mean motion
15.31700267 rev/d
Perigee alt
469.9 km
Apogee alt
471.6 km
Semi-major
6,848.9 km
B*
4.3051e-5
RAAN
169.4032°
Arg perigee
80.4888°
Mean anomaly
279.6254°
Rev number
27,857

§ Raw data

STARLINK-26331 48435U 21040H   26145.20277571  .00000971  00000+0  43051-4 0  99932 48435  53.1601 169.4032 0001241  80.4888 279.6254 15.31700267278577

JSON: /api/v1/satellites/48435 · /tle

For live sub-satellite position, see the globe view (requires WebGL).

§ Visibility from observer

Set your observer location to see the next 7 days of passes ≥ 10°. The values pass through the URL so the page stays shareable.

No JS? Fill the form by hand. The geolocation button needs JavaScript.